Location: Chakepay
(13.3931°S, 72.1925°W)
Time: 21:48:18
(UTC+00:00)

COSMOS 2428 - Pass Details

Date: 15 November 2019
Orbit: 844 x 858 km, 70.9° (Epoch: 11 December)

Event Time Altitude Azimuth Distance (km) Brightness Sun altitude
Rises 01:00:48 0° 194° (SSW) 3,421 6.5 -28.8°
Reaches altitude 10° 01:03:16 10° 193° (SSW) 2,479 5.6 -29.3°
Enters shadow 01:07:45 56° 178° (S) 1,000 3.1 -30.2°
